RH
53 47 45 44 42 45 90 89 94 88 99 83 71 55 56 54 54 51 51 53 57 61 57 48 49 49 47 49 50 50 49 50 54 56 56 60 63 66 67 76 76 88 95 92
66 45 47 47 70 80 81 77 85 86 94 64 48 46 49 48 45 47 48 50 50 49 43 40 42 45 45 48 50 49 48 48 47 50 51 56 58 63 64 76 76 96 97 94
71 49 54 83 97 80 73 79 72 86 70 64 48 44 49 48 43 44 46 47 46 44 39 43 45 42 45 46 48 48 47 40 40 48 50 57 51 48 53 68 83 96 96 97
83 71 97 93 74 75 56 37 39 39 41 59 45 43 44 43 44 42 43 44 45 42 44 43 42 42 43 41 45 49 44 40 40 48 50 56 57 58 49 53 70 97 96 95
98 94 98 95 85 90 80 60 51 42 42 41 38 40 44 38 41 48 49 50 51 46 44 42 39 40 39 42 40 39 42 41 41 45 48 54 60 62 57 55 79 93 96 96
91 96 98 99 82 70 60 72 50 49 47 39 38 58 54 42 44 46 45 44 42 39 40 40 44 43 43 43 42 38 42 46 46 42 44 50 54 55 57 68 88 84 81 94
96 98 99 94 82 63 82 84 56 47 49 42 47 42 44 42 44 43 42 41 38 38 40 41 42 42 44 41 41 40 41 44 50 53 42 45 50 48 51 58 70 62 63 65
95 98 99 82 83 92 78 74 54 47 48 47 42 41 42 41 42 41 41 39 34 38 38 38 38 38 38 39 39 38 34 32 36 42 43 42 44 48 50 55 60 64 59 58
85 90 83 83 82 72 57 59 55 47 46 46 45 42 41 44 43 41 41 36 34 36 38 39 38 38 40 38 37 43 44 46 37 34 37 39 47 52 58 59 62 65 60 64
73 80 77 82 73 64 59 66 65 41 43 42 47 45 47 43 43 42 38 35 33 36 39 43 40 35 35 32 34 41 49 54 56 57 59 66 57 53 59 68 65 65 68 69
71 75 74 74 66 68 66 65 62 37 41 41 44 45 46 44 44 43 38 35 36 38 39 40 38 33 30 31 35 42 48 51 63 63 63 73 85 86 71 68 79 72 77 72
96 73 77 82 69 65 68 67 58 42 43 38 39 42 42 45 44 40 44 42 37 38 38 37 35 33 33 34 39 44 46 54 68 75 81 81 84 80 82 87 82 73 74 74
86 74 74 72 68 62 64 62 40 40 39 40 40 40 41 43 46 52 45 41 36 39 38 37 36 35 35 39 42 41 46 55 64 71 80 88 90 87 80 72 76 77 78 72
74 80 82 68 72 66 62 58 40 37 38 36 37 40 43 44 46 45 48 42 36 38 39 41 40 42 40 49 46 56 64 82 84 88 88 89 89 89 92 84 82 82 73 76
78 76 82 75 74 66 58 38 38 38 38 40 42 46 48 50 52 52 52 37 34 46 46 45 45 46 47 49 46 66 76 88 86 86 86 86 84 90 91 80 82 84 73 72
84 81 79 79 73 63 50 51 39 41 43 46 49 52 50 54 59 58 52 44 42 48 48 53 55 53 59 52 69 80 83 85 83 84 85 84 84 90 90 88 80 82 77 82
84 87 76 71 69 64 58 55 37 39 50 51 54 54 58 64 61 60 56 56 56 54 56 55 64 58 69 71 76 87 89 83 86 86 83 84 85 90 90 92 86 80 82 86
65 68 71 74 64 67 62 59 47 46 48 52 57 64 71 70 65 63 64 65 61 60 58 59 62 66 70 76 80 87 89 85 86 87 86 84 83 84 82 92 92 83 83 91
62 66 61 54 57 59 67 66 49 52 60 63 70 70 72 74 68 65 69 73 73 62 63 65 76 67 70 82 85 89 88 86 88 88 86 88 85 84 82 94 94 93 94 96
71 70 78 79 76 75 73 73 66 58 66 75 81 81 82 99 95 75 72 67 68 67 64 71 61 61 65 80 90 89 88 86 88 88 89 86 90 95 91 88 92 94 98 98
66 66 74 79 80 81 82 82 80 73 77 80 79 84 81 90 98 84 75 76 67 68 66 74 62 64 65 76 86 92 90 88 92 90 94 94 94 93 92 93 97 99 99 99
66 69 68 75 74 76 77 78 80 87 90 99 99 100 99 86 99 88 74 71 74 86 75 67 69 72 69 79 82 92 91 88 88 91 94 98 99 99 100 100 99 99 99 98
63 67 61 65 65 68 72 74 80 80 92 99 99 99 90 87 89 88 81 70 78 83 69 68 75 77 80 78 85 91 91 89 90 90 93 94 99 100 99 99 98 99 98 98
65 57 59 55 58 60 67 68 70 75 82 84 84 85 80 84 88 84 78 79 84 85 82 81 80 78 85 88 87 90 92 92 91 92 94 99 100 99 98 98 95 95 96 96
61 58 55 59 60 63 62 62 67 76 77 86 87 86 82 83 86 86 85 83 88 83 85 85 79 82 86 89 87 84 92 92 93 96 96 99 99 98 98 97 97 97 96 94
60 58 56 52 59 64 67 71 77 80 82 88 92 96 95 95 96 95 93 92 85 87 86 94 90 86 86 89 88 88 91 94 93 94 98 98 98 95 97 95 95 95 96 96
63 77 57 62 55 58 66 79 84 87 92 92 93 95 97 98 98 99 99 98 99 97 98 99 94 90 88 89 91 90 89 92 94 93 94 98 98 99 99 98 97 97 97 96
Wind_Speed
11 15 16 18 19 19 8 5 5 4 5 8 8 13 8 8 8 10 9 8 8 7 6 6 6 6 6 6 6 5 6 6 7 7 7 9 10 9 8 7 9 11 13 15
9 13 7 13 11 15 11 4 2 6 5 2 8 11 9 8 9 9 8 9 9 8 7 7 6 6 5 5 6 6 6 7 8 8 8 10 11 9 10 8 10 15 15 16
4 13 14 4 11 14 8 2 3 4 7 4 11 12 8 8 8 8 9 10 8 9 8 7 6 5 4 6 6 7 6 7 9 9 11 11 13 14 14 12 8 15 17 16
6 8 2 6 14 17 14 19 17 13 9 7 11 8 7 7 7 10 11 11 11 9 8 6 4 5 7 7 6 6 8 10 12 11 13 13 15 15 15 13 13 13 16 17
3 2 4 5 13 13 8 17 19 17 10 14 12 8 5 8 8 10 12 11 9 9 7 6 6 7 8 7 6 8 8 10 13 14 14 15 16 15 14 14 14 14 14 17
4 3 4 6 24 27 13 10 25 21 2 12 8 6 3 10 14 14 14 12 10 8 7 7 7 8 7 6 7 8 8 10 12 13 15 15 14 14 14 12 10 10 14 15
2 2 2 13 28 21 11 7 21 19 3 6 6 6 9 15 13 13 14 13 10 8 7 7 7 8 7 6 8 8 10 11 12 13 12 13 12 13 14 13 12 14 14 16
4 2 1 19 18 8 10 17 16 13 4 9 13 17 14 13 15 15 14 12 10 7 6 7 8 7 7 8 7 8 11 12 11 11 10 11 13 13 14 14 15 15 16 15
0 3 7 13 13 16 12 15 18 10 3 9 11 11 11 12 15 12 11 11 8 7 7 7 8 6 7 5 6 6 7 7 9 10 11 11 12 13 12 13 12 13 13 14
5 4 11 17 17 12 16 20 27 9 1 9 9 9 9 13 11 9 12 11 8 7 9 7 7 6 6 6 6 6 6 5 5 6 7 8 7 8 10 12 13 13 13 14
4 4 11 8 15 17 24 24 24 10 2 10 11 9 11 10 8 9 12 10 7 7 9 7 7 6 6 6 6 6 6 6 5 4 5 5 4 4 6 7 9 11 11 10
3 8 5 16 19 24 23 25 21 7 3 10 10 9 11 8 7 12 10 8 8 8 9 7 7 6 6 6 7 6 5 5 5 5 5 5 6 7 7 7 12 22 22 17
6 13 13 18 21 25 19 23 14 6 4 10 9 10 8 7 8 11 10 10 10 9 8 8 7 6 6 6 6 6 6 5 4 5 5 5 5 7 9 10 12 17 23 26
15 13 13 13 12 22 22 26 8 6 8 11 10 9 7 8 11 10 9 10 10 10 9 8 8 7 5 7 7 7 7 8 5 4 5 5 5 5 5 7 8 9 14 18
9 11 15 18 19 20 21 8 7 6 8 9 8 9 10 9 8 8 9 11 11 9 8 8 8 7 6 7 7 7 5 4 5 4 4 5 5 5 5 7 7 6 8 10
16 15 15 15 17 18 9 13 6 4 8 7 8 9 9 8 8 8 9 11 11 9 8 9 8 7 7 7 7 6 5 6 5 4 4 4 4 4 5 5 6 6 7 6
9 10 6 9 4 8 8 10 1 4 7 9 9 9 9 8 8 8 8 8 8 8 8 9 8 7 7 8 8 5 4 4 5 3 3 3 4 4 4 4 4 5 5 5
6 11 10 9 4 6 8 7 6 6 6 8 9 9 9 9 8 7 8 8 7 7 8 8 9 8 7 8 7 5 5 4 3 4 3 3 3 3 4 3 3 4 4 5
12 8 6 5 5 5 6 7 4 5 7 8 9 8 8 6 6 7 7 8 8 7 6 9 10 9 8 8 8 5 4 4 3 3 3 4 3 3 3 3 3 3 3 4
15 13 9 8 8 6 6 6 4 7 7 7 8 8 8 3 3 7 7 8 7 5 7 9 10 7 7 9 9 5 5 5 4 3 3 3 3 3 3 4 4 3 3 3
14 14 11 7 7 7 7 7 7 7 6 6 7 7 7 6 5 6 7 5 7 7 10 12 9 6 5 8 7 6 6 5 4 5 3 2 2 3 3 3 4 4 4 3
13 10 11 8 7 7 7 6 6 6 6 5 4 4 3 6 4 4 4 6 5 8 7 8 6 8 6 10 5 6 6 6 5 5 4 4 3 2 3 3 4 4 3 3
10 6 8 8 7 6 7 6 5 4 5 4 5 5 4 4 4 5 5 4 4 8 8 8 9 10 10 8 6 6 7 7 6 6 5 5 6 6 5 4 4 4 4 3
12 13 7 4 5 6 7 7 7 7 7 2 3 4 4 1 2 4 4 5 5 10 7 8 9 11 11 6 6 6 6 6 6 6 5 9 7 5 4 4 6 6 3 4
13 11 13 6 6 5 6 5 5 6 8 8 6 4 3 3 3 3 5 5 5 7 6 9 12 11 7 7 8 8 7 7 6 6 6 7 7 6 5 7 8 7 7 7
14 9 10 6 3 3 4 5 4 4 6 5 4 5 5 5 5 4 5 3 3 5 5 4 5 7 7 8 9 8 7 6 7 7 8 7 8 9 9 9 9 9 9 8
7 5 7 6 3 3 4 4 4 4 3 4 3 4 5 5 6 6 7 6 5 2 1 3 4 6 5 6 7 8 8 7 8 8 8 8 8 8 10 9 9 8 8 9
Wind_Direction
303 302 295 289 290 310 207 216 183 242 191 274 274 149 138 139 129 124 129 122 120 110 110 101 81 64 46 25 29 19 18 5 345 336 331 331 330 345 346 7 357 343 340 348
291 278 301 322 38 360 349 20 22 37 289 209 111 115 128 144 140 140 141 127 127 118 105 91 86 73 48 35 33 26 18 4 347 345 343 345 345 340 341 348 10 355 343 350
282 325 310 70 1 341 329 203 205 239 231 132 135 138 151 149 145 141 128 123 113 100 96 82 81 81 63 54 42 25 16 3 352 350 355 353 358 4 6 3 31 359 352 351
290 340 24 343 16 352 346 41 22 13 11 167 138 132 137 140 136 127 119 111 101 102 95 94 93 71 61 52 40 29 17 7 359 2 6 4 8 3 9 8 28 356 355 356
342 324 266 339 346 337 303 37 10 1 82 96 111 105 116 133 118 113 108 106 107 109 111 104 87 75 69 47 34 36 27 15 11 19 13 10 10 4 4 23 12 2 359 0
340 332 336 320 334 329 294 18 352 340 88 124 112 107 201 113 111 106 107 111 107 104 102 91 79 77 69 51 43 39 17 18 21 29 20 16 11 8 3 16 9 359 8 9
255 283 313 355 327 319 56 317 327 324 358 158 167 163 139 115 109 110 114 113 108 103 113 112 92 83 69 56 51 34 34 33 30 19 29 20 11 14 11 11 2 13 12 19
341 280 336 355 328 32 319 304 316 312 4 74 98 109 114 114 112 115 117 109 111 109 118 102 95 89 80 72 69 63 55 47 37 27 18 19 22 18 17 11 15 12 15 19
109 283 358 312 288 292 324 326 322 320 14 94 98 109 116 112 117 124 116 118 115 120 108 95 92 91 88 88 87 87 79 64 55 45 32 22 27 23 22 17 18 13 17 18
315 269 345 306 298 304 326 323 314 297 287 115 119 116 105 117 125 118 118 121 122 111 99 99 97 99 106 97 82 72 73 89 69 58 41 29 31 29 29 23 23 23 19 18
290 23 337 296 309 317 317 315 314 325 289 127 125 121 119 128 127 119 124 128 123 117 116 115 110 110 100 100 94 75 64 50 52 59 55 28 23 20 23 22 23 28 23 19
256 328 277 277 298 303 307 304 295 306 344 129 126 123 124 132 121 126 131 124 121 116 121 120 116 113 107 105 89 87 69 51 43 42 36 38 23 14 357 13 10 31 29 35
314 316 300 289 293 290 300 311 293 308 163 129 125 128 128 129 122 132 128 127 131 132 131 125 122 115 115 98 101 91 84 73 53 51 46 36 21 29 24 358 13 19 22 26
311 305 291 286 287 307 304 302 291 286 118 122 125 122 122 114 127 134 132 136 133 128 130 130 125 123 124 100 92 86 80 71 75 62 53 45 36 31 31 35 20 13 3 15
294 309 286 289 293 292 299 304 355 108 111 111 116 119 119 124 128 139 128 131 132 125 135 129 129 141 121 117 109 100 92 84 86 78 61 52 37 39 47 47 38 28 13 9
287 279 278 274 282 292 332 342 44 62 110 112 112 117 130 126 131 126 125 134 138 153 154 138 144 156 133 123 109 104 103 111 100 89 75 61 44 42 48 50 49 38 36 17
271 288 274 305 277 329 323 319 127 64 106 112 122 125 116 124 124 123 133 138 136 151 146 147 158 145 128 127 127 132 127 131 130 87 77 79 73 54 62 70 59 42 26 22
231 230 251 265 319 310 322 325 77 97 117 128 124 117 122 133 147 143 141 136 132 133 146 150 145 143 134 138 135 139 142 146 140 136 125 90 95 86 89 90 79 67 21 30
24 20 15 13 342 351 337 1 62 84 109 124 120 139 142 134 150 148 133 129 143 156 186 144 148 146 142 145 138 139 153 159 152 146 141 129 106 103 91 76 88 78 59 60
5 8 17 27 23 26 6 3 16 89 89 88 107 120 139 126 131 139 139 165 175 174 144 147 156 159 154 157 143 150 160 173 171 170 157 155 150 151 135 122 114 76 50 60
1 1 6 13 20 18 22 29 43 71 72 96 130 159 174 153 156 165 146 164 202 164 151 160 166 172 159 161 157 155 163 174 171 176 169 183 172 156 148 134 124 142 145 135
353 355 357 355 19 18 18 34 54 64 70 76 75 118 133 168 167 221 200 175 197 154 154 172 172 169 158 157 166 163 168 176 179 173 172 164 188 187 148 155 157 169 151 156
346 346 352 358 14 5 26 34 37 77 102 134 145 164 198 196 178 172 219 239 178 171 166 177 174 175 163 169 175 175 177 178 181 180 178 168 178 189 185 185 193 173 165 181
336 350 333 349 18 17 35 26 23 23 37 116 136 192 185 196 242 231 225 239 190 167 178 174 176 171 164 174 180 180 185 184 181 177 166 178 184 184 168 175 211 220 216 200
329 338 344 4 36 23 18 35 34 10 34 31 27 6 306 306 189 255 214 232 189 181 189 177 176 171 176 176 183 190 191 190 181 173 170 182 176 178 174 202 206 207 212 222
317 328 330 340 32 42 12 20 16 11 38 9 3 6 0 3 12 15 22 9 166 197 188 173 179 178 184 184 188 191 188 180 177 184 180 180 185 197 204 208 208 206 207 209
252 298 325 325 351 38 33 26 18 359 36 26 336 348 7 15 4 9 18 19 5 310 242 186 176 188 190 191 191 191 192 191 186 184 187 185 186 195 204 206 208 207 207 207